STARLINK-11190, 60911

Orbit data source: Space-Track

STARLINK-11190, 60911 is a payload satellite owned by SpaceX/Seattle (US) in LEO that was launched on Sat, 31 Aug 2024 UTC via an FALCON 9 launch vehicle from the Air Force Eastern Test Range (AFETR). Payload-class satellites include a variety of spacecraft equipped with specific instruments for various scientific and technological missions. These include communications satellites like Starlink; space stations such as the ISS; scientific satellites like the Hubble; Earth observation satellites from companies like Planet Labs, Umbra, and HawkEye 360; GPS; miniature CubeSats for education and research; and military/defense satellites.

Loading next visibility...
Identifier
60911, 2024-154J
Orbit
LEO
Country
Flag of USUS
Related business
Manufacturer
SpaceX/Seattle
Mission
Operational Commercial Communications
Bus & Motor
STARLINK V2MD, Unknown motor
Mass
960 kg wet, ~910 kg dry
Launch date (UTC)
2024-08-31 (2 years ago)
Launch vehicle
FALCON 9
Launch site
Air Force Eastern Test Range (AFETR)
Object type
Payload
Rocket body
Debris
Shape & HBR
Box + 2 Pan, 18.1 m
Radar Cross Section
36.964 m², Large (>1 m²)

Expand to show TLE details & history
Last TLE update: 15 hours ago

TLE from 15 hours ago
0 STARLINK-11190
1 60911U 24154J   26129.87342625 -.00001715  00000-0 -93043-5 0  9990
2 60911  53.1597 189.6744 0001085  90.2059 269.9083 15.69701681 98117
Epoch: 2026-05-09T20:57Z
TLE epoch observation values (Epoch: 2026-05-09T20:57:44.027Z)
Latitude
-0.00002°
Longitude
7.55633°
Altitude
360.667 km
Speed
7.694 km/s
True Right ascension
12h 38m 41s
True Declination
0° 00' 00"
Sunlit
Object was in full shadow at epoch
Visualization orbit readout
Latitude
Unknown
Longitude
Unknown
Altitude
Unknown
Speed
Unknown
Apparent Right ascension
Unknown
Apparent Declination
Unknown
Sunlit
N/A
Visualization observer readout
Local Sidereal Time
20:39:17
Azimuth
Unknown
Elevation
Unknown
Doppler factor
Unknown
Orbital elements
Apogee altitude
360.742 km
Perigee altitude
359.28 km
Semi-major axis
6,738.148 km
Eccentricity
0.00011
Inclination
53.1597°
RAAN
189.6744°
Arg. of periapsis
90.2059°
True anomaly
269.89587°
Mean anomaly
269.9083°
Eccentric anomaly
269.90208°
Mean motion
3.92403 °/min
Orbital period
91.74 mins
BSTAR
-0.0000093043
Loading maneuver chart data...
Computing Atmospheric mass density...
Loading historical data...
Loading historical data...
Loading historical data...
Loading historical data...
Loading historical data...
Loading historical data...
Loading historical data...

Documentation

Showing up to 5 results
|